GW2321 Weather Reports


time (UTC)temp
F
wind
direction
speed
knots
gust
knots
rain 1hr
in
rain 24hr
in
rain mn
in
humidity
%
barometer
mb
20260504231538 77 46 3.5 8.7 0.00 0.00 0.00 17 1008.1
20260504230104 77 24 3.5 12.2 0.00 0.00 0.00 16 1008.3
20260504224558 78 355 1.7 11.3 0.00 0.00 0.00 19 1008.3
20260504223048 78 18 4.3 10.4 0.00 0.00 0.00 17 1008.2
20260504221539 77 341 1.7 11.3 0.00 0.00 0.00 16 1008.1
20260504220052 77 13 5.2 13.0 0.00 0.00 0.00 14 1008.2
20260504214547 78 0 1.7 12.2 0.00 0.00 0.00 17 1008.5
20260504213040 78 24 3.5 8.7 0.00 0.00 0.00 16 1008.5
20260504211538 77 355 5.2 13.9 0.00 0.00 0.00 18 1008.5
20260504210052 77 23 6.1 12.2 0.00 0.00 0.00 16 1008.6
20260504204546 77 24 4.3 10.4 0.00 0.00 0.00 19 1008.5
20260504203045 76 32 7.0 12.2 0.00 0.00 0.00 17 1008.6
20260504201544 77 351 1.7 10.4 0.00 0.00 0.00 16 1008.5
20260504200050 77 37 4.3 9.6 0.00 0.00 0.00 17 1008.6
20260504194538 77 21 1.7 9.6 0.00 0.00 0.00 20 1008.6
20260504193045 76 16 2.6 8.7 0.00 0.00 0.00 19 1008.8
20260504191552 75 46 4.3 10.4 0.00 0.00 0.00 17 1008.8
20260504190040 75 37 4.3 8.7 0.00 0.00 0.00 16 1008.8
20260504184540 75 44 1.7 9.6 0.00 0.00 0.00 19 1008.9
20260504183038 74 53 2.6 11.3 0.00 0.00 0.00 20 1009.0
20260504181544 74 355 3.5 13.9 0.00 0.00 0.00 20 1009.1
20260504180044 73 14 5.2 11.3 0.00 0.00 0.00 18 1009.0
20260504174539 73 13 3.5 10.4 0.00 0.00 0.00 22 1008.8
20260504173039 72 15 6.1 13.0 0.00 0.00 0.00 21 1008.7
20260504171538 71 25 3.5 12.2 0.00 0.00 0.00 24 1008.6
20260504081544 49 0 0.0 0.0 0.00 0.00 0.00 63 1008.1
20260504044540 58 0 0.0 0.0 0.00 0.00 0.00 48 1008.2
20260504043049 59 0 0.0 1.7 0.00 0.00 0.00 45 1008.1
20260504041540 61 44 0.9 2.6 0.00 0.00 0.00 43 1008.1
20260504040042 61 0 0.0 2.6 0.00 0.00 0.00 43 1008.2
20260504034546 63 45 1.7 3.5 0.00 0.00 0.00 42 1007.9
20260504033037 64 46 0.9 2.6 0.00 0.00 0.00 41 1008.0
20260504031547 66 44 1.7 3.5 0.00 0.00 0.00 37 1007.7
20260504030101 68 98 0.9 2.6 0.00 0.00 0.00 36 1007.7
20260504024540 72 0 0.0 0.9 0.00 0.00 0.00 29 1007.8
20260504023038 75 0 0.0 0.0 0.00 0.00 0.00 20 1007.9
20260504021544 76 0 0.0 0.0 0.00 0.00 0.00 19 1008.1
20260504020038 77 0 0.0 2.6 0.00 0.00 0.00 18 1008.5
20260504014537 77 0 0.0 0.0 0.00 0.00 0.00 17 1008.3
20260504013047 79 0 0.0 2.6 0.00 0.00 0.00 18 1008.5
20260504011541 80 0 0.9 3.5 0.00 0.00 0.00 12 1008.8
20260504010045 81 0 0.0 5.2 0.00 0.00 0.00 17 1008.9
20260504004543 82 200 0.0 2.6 0.00 0.00 0.00 13 1009.1
20260504003037 82 0 0.0 2.6 0.00 0.00 0.00 9 1009.1
20260504001545 82 217 0.9 7.8 0.00 0.00 0.00 16 1009.2
20260504000051 82 256 0.9 6.1 0.00 0.00 0.00 12 1009.3
20260503234542 82 0 0.0 5.2 0.00 0.00 0.00 10 1009.5
20260503233038 83 0 1.7 10.4 0.00 0.00 0.00 10 1009.7